Wind_Speed
25 22 21 21 26 26 24 17 25 22 32 31 25 21 22 22 24 25 15 14 15 12 9 9 10 10 7 7 8 6 4 2 2 3 3 3 3 4 5 6 5 4 4 4 5 5 8 10 10
25 25 24 24 23 24 19 17 22 36 31 26 24 26 27 34 30 27 25 23 21 20 19 15 14 13 12 11 11 11 7 6 6 5 6 6 7 7 5 5 3 3 2 3 4 5 7 8 9
26 22 27 28 26 24 22 32 28 43 33 28 29 28 35 40 29 33 26 27 26 25 24 22 19 16 16 14 13 13 13 9 10 8 7 7 7 8 7 5 3 2 2 3 4 5 7 7 8
33 28 28 29 28 26 22 27 37 32 34 32 35 30 33 36 35 36 33 33 30 30 27 26 25 21 19 18 17 15 17 17 14 13 12 9 9 9 7 7 5 4 5 6 7 6 7 8 7
36 36 34 31 28 25 40 42 29 29 35 32 30 30 37 37 35 35 35 36 35 34 32 30 29 27 25 23 23 21 19 18 17 15 15 14 11 10 10 10 9 7 7 8 10 10 10 9 8
41 39 36 38 33 34 38 38 37 34 36 35 29 35 38 34 36 36 36 35 35 35 35 33 33 31 30 28 28 26 23 22 20 18 16 17 18 17 16 14 13 12 10 10 11 12 12 12 11
42 44 40 39 36 41 39 37 38 34 39 38 43 32 39 44 36 33 34 35 38 39 36 36 36 35 32 31 31 30 28 27 24 24 23 21 20 21 20 18 17 16 14 12 13 12 13 13 13
45 47 47 44 43 44 44 43 39 42 40 49 38 34 39 55 31 35 36 37 37 38 38 35 35 34 33 33 32 32 31 31 29 27 26 25 24 24 22 21 21 20 18 16 15 13 14 14 14
42 44 47 43 46 43 43 52 40 48 40 42 37 41 48 43 35 35 35 36 38 39 39 39 38 37 35 35 33 35 31 31 29 29 29 28 26 27 25 24 23 24 22 20 19 17 17 16 16
40 40 39 39 47 47 44 51 43 50 41 42 41 42 42 42 41 41 40 39 39 41 43 41 38 37 39 35 35 37 37 38 35 35 35 33 34 31 29 28 28 28 28 26 24 22 21 20 18
38 40 40 47 44 45 44 46 41 49 42 42 41 45 45 45 41 40 41 40 42 43 42 41 39 38 35 35 38 41 39 41 40 38 39 37 38 37 35 37 33 31 31 31 29 27 26 24 21
37 36 40 44 45 45 47 48 45 46 44 45 45 44 45 40 37 40 39 38 35 39 44 44 42 40 40 39 38 38 37 37 37 39 39 42 39 41 41 40 40 36 36 35 34 33 30 28 27
31 33 37 38 39 39 39 40 40 43 44 40 46 45 43 43 40 41 40 37 38 44 34 48 39 38 40 40 39 40 40 40 44 42 41 41 42 47 47 45 44 41 41 39 38 38 35 33 31
30 30 30 32 33 34 34 34 36 37 37 39 40 39 39 42 39 38 38 36 39 41 42 43 41 39 41 43 42 40 40 40 41 42 44 43 43 47 47 47 48 48 45 43 45 42 39 38 37
26 25 28 29 30 32 32 31 32 33 36 35 33 36 36 38 37 37 37 37 36 39 41 40 39 39 38 39 39 38 36 37 38 40 41 48 47 44 48 50 48 50 50 51 49 43 44 44 43
27 28 28 28 31 31 32 29 30 35 36 34 35 40 39 38 40 41 39 40 39 38 40 40 41 42 40 40 39 39 39 38 40 40 38 39 42 46 49 56 52 50 52 52 54 52 52 49 50
27 26 26 24 30 30 31 29 31 37 31 35 37 37 38 40 41 42 41 41 42 43 44 44 43 44 44 43 42 42 42 42 43 45 44 42 39 41 47 50 47 53 56 57 53 53 55 54 54
19 24 27 27 27 32 35 35 33 39 37 39 40 39 41 42 43 44 45 45 45 45 46 46 47 47 47 48 49 47 46 45 43 44 47 46 46 48 48 49 51 52 55 48 53 55 59 57 59
34 34 31 29 35 42 40 41 42 44 44 44 43 44 44 44 44 47 48 50 49 52 52 49 49 50 50 51 51 50 52 50 50 49 48 46 45 49 51 53 55 54 53 57 57 56 54 53 54
38 38 37 36 39 43 41 37 37 38 34 34 34 35 33 34 37 40 43 44 45 46 47 50 51 52 53 53 52 52 53 52 53 54 54 51 53 52 55 55 57 58 58 58 56 57 57 55 55
31 32 31 36 36 40 34 36 35 36 34 35 37 33 35 38 39 43 47 46 46 45 44 47 48 49 51 52 53 53 55 54 55 55 53 51 51 53 56 59 59 65 65 65 63 62 61 61 56
33 31 36 38 36 39 36 40 34 37 36 39 39 37 39 41 46 50 52 49 49 51 49 48 49 50 50 51 52 53 55 56 56 56 55 53 53 56 56 59 61 64 63 64 61 60 60 57 60
35 36 39 38 37 40 41 44 38 36 39 39 41 39 41 46 54 50 50 52 52 53 54 53 53 53 53 54 54 55 56 57 56 58 58 58 57 56 58 58 60 61 60 60 58 55 54 51 53
35 39 38 39 39 45 39 42 37 31 32 32 37 40 45 54 50 50 54 54 56 57 57 58 57 54 57 58 59 60 60 59 60 60 59 59 60 58 56 56 58 58 58 58 53 57 56 53 54
36 36 37 37 33 41 28 31 29 26 37 41 35 36 48 50 43 51 51 52 55 56 57 58 59 59 60 62 64 64 64 65 65 64 61 60 60 60 60 61 65 61 57 56 54 54 54 54 54
36 32 33 38 34 34 32 36 32 30 42 48 45 41 45 48 46 45 49 52 52 56 57 58 59 60 60 61 65 67 68 68 68 68 65 63 62 62 68 68 61 55 62 52 54 55 53 52 54
37 38 32 45 46 47 41 40 36 29 32 45 49 45 33 39 40 45 49 51 53 54 57 59 62 62 63 63 64 65 67 70 70 68 68 66 64 66 64 63 71 48 45 57 57 56 54 53 56
39 38 38 39 44 44 34 24 18 28 34 41 51 51 51 44 42 43 47 50 53 53 54 59 61 61 62 63 62 63 65 66 67 68 68 65 65 66 68 69 69 47 44 50 51 53 58 59 58
41 46 44 43 48 49 48 40 30 40 46 44 48 50 54 57 52 47 44 49 52 52 53 55 57 59 59 65 62 64 65 65 67 68 68 69 69 69 69 72 67 42 55 63 64 63 49 60 54
39 38 38 37 39 39 42 43 34 43 43 44 48 51 55 57 51 52 50 51 51 49 52 52 52 54 56 58 61 63 67 69 69 70 70 70 72 72 71 74 69 77 72 61 59 58 61 60 54
Wind_Direction
224 223 219 216 215 217 218 220 230 231 248 239 244 238 228 221 222 223 259 269 273 265 267 276 277 270 288 280 267 266 276 275 306 304 299 299 330 348 17 39 55 61 61 32 20 9 8 8 25
219 225 225 222 219 218 227 221 237 241 234 248 240 236 241 241 248 258 261 270 270 271 270 270 271 282 277 285 285 282 288 298 305 322 320 318 322 323 336 354 19 35 19 6 355 346 345 351 7
224 227 227 224 220 216 231 213 227 239 251 249 246 240 239 240 251 255 265 266 268 269 272 275 275 272 278 277 278 280 277 299 307 304 301 300 296 299 316 322 338 338 331 311 310 319 325 342 353
225 232 231 229 225 221 246 232 232 244 248 243 242 252 250 250 245 255 260 264 267 269 269 273 276 275 274 273 278 279 282 282 296 292 286 284 287 292 294 295 307 303 297 294 291 302 312 320 331
229 228 235 231 227 219 229 234 237 241 243 246 245 249 252 248 254 253 255 260 267 270 273 274 276 279 278 274 277 278 278 280 283 282 284 284 284 288 287 285 281 275 285 290 294 300 300 303 315
235 238 229 237 238 232 238 241 240 240 245 246 246 247 260 263 256 258 262 262 264 269 272 273 273 273 275 276 278 279 276 276 280 280 279 278 280 292 291 289 286 284 281 284 283 286 292 296 306
235 239 239 237 241 243 249 247 243 240 241 245 245 253 256 262 257 265 266 264 266 264 265 268 268 269 270 275 278 280 281 281 279 278 278 278 277 279 279 284 282 283 277 268 266 272 281 287 295
237 239 241 239 238 241 248 255 242 248 248 247 252 249 252 258 256 259 261 263 263 262 265 268 270 269 270 271 274 276 274 277 277 275 278 283 282 278 276 273 273 269 269 266 264 266 270 278 285
238 241 243 245 245 249 250 252 253 252 251 256 253 247 249 263 265 259 257 261 264 264 263 268 270 268 265 266 269 270 267 268 271 270 271 268 269 273 274 272 264 267 261 257 256 257 261 266 274
235 239 244 247 244 243 245 252 251 259 256 256 256 252 253 255 256 260 259 256 259 262 263 266 267 266 265 259 259 263 261 262 258 263 265 262 266 263 261 256 258 257 256 256 255 252 254 258 262
237 238 240 245 250 250 249 253 252 256 253 254 252 251 250 250 252 254 256 258 257 261 263 264 266 267 260 264 262 264 261 263 266 264 258 258 261 264 264 253 247 249 248 251 250 252 256 255 257
239 237 238 243 243 246 248 250 252 255 256 254 258 255 256 258 253 255 255 259 265 275 268 260 264 264 267 268 264 270 275 270 267 263 263 262 258 256 259 254 248 242 246 248 252 252 250 254 258
241 241 242 245 248 248 249 254 254 255 257 255 256 258 260 257 255 255 255 254 252 259 266 266 261 262 263 263 262 262 260 258 262 263 254 256 258 251 253 252 251 241 238 242 246 249 249 248 251
242 242 245 246 249 251 251 254 256 257 261 258 259 260 260 263 261 259 256 249 249 251 245 264 263 260 258 259 261 262 260 260 261 259 255 250 245 243 249 249 249 254 254 244 243 243 244 249 250
245 243 244 245 249 250 252 252 255 257 257 259 262 262 261 264 266 263 262 258 253 251 255 258 260 260 258 258 257 257 256 259 260 261 257 256 250 253 245 247 247 249 256 257 259 254 250 249 249
244 244 246 248 247 250 251 251 252 252 252 259 258 260 260 262 265 267 266 267 268 265 265 264 261 261 259 258 257 256 259 261 263 264 261 258 255 252 254 252 250 251 252 255 261 263 267 265 258
244 247 249 247 252 253 254 254 250 256 257 253 255 257 260 261 260 262 263 263 262 260 261 263 265 266 267 267 265 262 261 259 261 262 263 263 259 258 252 261 254 257 268 258 259 262 263 265 264
251 253 245 248 256 252 258 255 255 260 257 259 258 258 258 260 262 263 263 262 262 261 260 260 261 261 262 263 263 262 262 261 259 258 260 263 265 262 260 259 257 260 257 266 263 261 264 270 269
242 249 253 251 253 260 257 257 258 257 261 263 263 263 262 264 266 266 265 267 260 259 259 257 256 258 260 260 260 259 261 262 264 264 261 256 259 261 261 262 261 258 261 257 257 259 265 258 273
254 258 258 259 256 259 259 260 259 262 264 265 263 263 268 266 263 262 262 262 263 262 263 262 262 261 261 262 262 262 262 260 260 263 262 259 256 255 256 258 262 264 264 263 260 265 266 266 266
249 251 252 252 253 261 263 265 266 265 264 264 263 265 263 263 262 261 261 263 263 265 263 263 262 261 260 261 263 263 263 263 262 262 264 264 261 256 257 257 260 262 264 265 265 265 267 271 269
251 254 253 256 259 264 267 266 260 267 267 264 262 258 262 262 262 258 258 264 265 264 263 262 264 264 262 260 260 261 263 264 265 264 263 258 257 259 258 258 261 264 266 268 269 269 268 270 270
253 254 257 261 260 262 262 267 272 272 272 273 267 266 264 257 256 263 263 262 263 264 264 263 261 262 264 264 262 259 259 260 260 262 263 262 259 256 259 261 260 260 262 264 265 267 268 268 270
255 256 260 261 263 260 266 267 269 269 270 265 267 266 260 261 262 262 262 263 263 263 263 263 262 261 260 261 262 262 261 260 260 260 260 262 263 262 260 261 259 258 258 259 262 262 263 262 267
255 256 260 262 262 266 274 274 271 258 255 267 264 260 262 264 266 262 265 264 263 264 263 264 263 261 259 260 259 259 259 259 260 259 259 260 262 266 266 264 262 262 260 253 254 258 261 266 269
255 262 264 269 260 259 241 243 255 259 272 268 272 264 264 268 266 265 264 264 264 265 266 264 264 263 261 259 258 259 259 258 258 259 258 257 259 263 269 257 253 250 259 232 254 254 258 262 264
263 259 253 252 260 266 270 268 276 283 266 276 280 276 267 266 270 267 266 267 266 264 264 265 264 264 262 260 259 258 258 259 259 259 259 258 257 260 260 265 267 249 233 254 250 253 258 260 263
263 259 255 255 266 269 273 272 266 256 247 247 268 282 285 280 271 268 270 270 268 266 263 262 264 264 263 263 261 260 260 259 258 257 257 257 257 257 257 254 258 261 243 239 260 251 256 259 260
266 269 268 267 259 268 273 270 259 263 266 262 270 277 281 284 286 282 276 271 271 271 268 264 263 261 260 264 264 263 261 259 258 257 256 254 253 254 253 254 253 250 251 262 257 265 263 273 264
272 270 268 260 264 266 269 273 268 264 271 274 274 276 277 277 281 281 278 276 275 273 270 270 267 265 262 260 261 261 263 262 259 258 256 255 254 253 252 253 252 248 259 261 263 261 263 261 258
Height
5875 5878 5880 5883 5889 5890 5892 5899 5901 5894 5894 5892 5897 5902 5903 5905 5903 5906 5905 5905 5906 5907 5908 5909 5910 5909 5909 5908 5908 5907 5907 5906 5905 5905 5905 5904 5903 5903 5902 5901 5901 5902 5901 5901 5901 5902 5901 5901 5899
5872 5875 5877 5880 5884 5887 5894 5899 5889 5892 5887 5889 5894 5898 5901 5897 5899 5901 5902 5903 5903 5904 5905 5907 5908 5909 5908 5907 5907 5906 5906 5905 5904 5904 5904 5903 5903 5903 5902 5901 5901 5900 5900 5900 5900 5900 5900 5900 5898
5869 5871 5874 5876 5879 5883 5886 5885 5886 5879 5884 5888 5890 5894 5891 5891 5897 5894 5899 5899 5900 5901 5902 5903 5905 5905 5906 5905 5905 5905 5905 5904 5903 5902 5902 5901 5901 5901 5901 5900 5900 5900 5900 5900 5899 5898 5899 5898 5897
5864 5867 5869 5871 5876 5881 5877 5878 5879 5882 5880 5884 5884 5889 5889 5887 5891 5891 5893 5894 5896 5897 5899 5899 5900 5902 5902 5903 5903 5903 5902 5902 5902 5901 5901 5899 5899 5899 5898 5898 5899 5899 5900 5899 5898 5897 5897 5897 5897
5856 5860 5863 5867 5871 5874 5871 5871 5877 5879 5877 5881 5883 5882 5881 5883 5885 5886 5889 5891 5892 5894 5895 5896 5896 5897 5898 5899 5900 5901 5900 5899 5900 5900 5899 5899 5898 5897 5896 5896 5897 5897 5897 5898 5898 5897 5896 5895 5895
5853 5855 5857 5861 5866 5865 5866 5868 5871 5874 5874 5875 5881 5877 5874 5879 5879 5882 5883 5885 5888 5889 5890 5892 5892 5892 5893 5893 5895 5896 5897 5897 5897 5896 5896 5896 5896 5896 5896 5895 5895 5895 5895 5895 5896 5896 5895 5894 5893
5848 5849 5853 5856 5857 5858 5860 5861 5864 5869 5868 5872 5868 5878 5871 5865 5875 5878 5879 5880 5880 5883 5885 5885 5887 5888 5888 5889 5889 5890 5892 5893 5893 5892 5892 5892 5892 5893 5893 5893 5894 5895 5894 5892 5892 5892 5893 5892 5891
5841 5843 5846 5849 5852 5853 5853 5852 5857 5858 5863 5856 5871 5873 5868 5852 5873 5872 5873 5874 5874 5875 5876 5879 5881 5882 5883 5884 5885 5885 5885 5887 5888 5889 5889 5888 5888 5888 5890 5890 5890 5890 5891 5892 5892 5891 5890 5890 5889
5833 5834 5839 5842 5843 5848 5848 5842 5853 5847 5856 5856 5861 5862 5858 5861 5866 5866 5866 5867 5868 5869 5870 5872 5873 5876 5878 5879 5880 5881 5881 5882 5883 5884 5884 5884 5885 5884 5885 5886 5887 5888 5887 5888 5889 5889 5888 5888 5887
5827 5829 5833 5835 5833 5836 5841 5836 5842 5840 5849 5849 5852 5854 5854 5854 5856 5860 5861 5861 5861 5862 5863 5865 5867 5868 5870 5872 5874 5876 5877 5877 5878 5879 5879 5879 5879 5880 5880 5881 5882 5883 5883 5883 5884 5884 5885 5885 5884
5820 5824 5827 5824 5827 5829 5832 5832 5836 5831 5839 5840 5842 5844 5846 5847 5850 5853 5854 5855 5855 5855 5855 5858 5861 5862 5863 5865 5867 5868 5870 5870 5871 5871 5872 5873 5873 5875 5874 5875 5876 5877 5878 5878 5879 5879 5881 5881 5882
5814 5817 5818 5819 5821 5824 5825 5825 5827 5827 5829 5831 5834 5836 5838 5842 5844 5845 5847 5849 5850 5851 5851 5850 5854 5855 5856 5858 5860 5860 5861 5862 5863 5864 5864 5865 5866 5866 5868 5869 5869 5870 5872 5873 5874 5875 5875 5876 5877
5808 5809 5810 5812 5814 5817 5818 5818 5821 5820 5821 5825 5824 5828 5829 5831 5835 5836 5839 5843 5844 5843 5840 5841 5845 5847 5848 5848 5851 5852 5854 5855 5854 5854 5856 5856 5857 5858 5859 5860 5861 5862 5862 5865 5866 5868 5869 5869 5871
5801 5803 5805 5807 5808 5810 5811 5813 5813 5815 5817 5817 5818 5821 5821 5821 5826 5830 5832 5834 5835 5835 5839 5836 5835 5838 5840 5840 5841 5844 5845 5845 5845 5845 5846 5847 5848 5849 5850 5851 5853 5855 5856 5857 5857 5858 5860 5863 5864
5797 5800 5800 5801 5803 5804 5806 5808 5809 5810 5808 5810 5812 5812 5814 5815 5817 5820 5822 5824 5828 5829 5828 5828 5828 5829 5832 5832 5833 5835 5836 5835 5835 5837 5841 5843 5843 5842 5843 5843 5844 5847 5848 5848 5850 5851 5854 5855 5856
5791 5793 5795 5796 5796 5798 5800 5803 5803 5802 5803 5805 5805 5804 5806 5808 5807 5809 5812 5814 5816 5819 5819 5820 5820 5820 5822 5823 5825 5826 5828 5828 5827 5829 5832 5835 5836 5833 5836 5835 5837 5837 5838 5841 5842 5843 5846 5847 5848
5786 5788 5789 5791 5790 5792 5793 5795 5795 5794 5797 5797 5798 5799 5798 5798 5800 5801 5802 5804 5805 5806 5807 5808 5809 5809 5810 5812 5815 5817 5818 5818 5818 5821 5823 5825 5825 5825 5826 5826 5828 5831 5831 5831 5833 5834 5837 5837 5839
5783 5782 5784 5785 5785 5784 5783 5785 5787 5785 5788 5788 5788 5790 5791 5790 5791 5792 5793 5794 5794 5794 5795 5797 5798 5799 5800 5801 5802 5805 5807 5808 5809 5809 5810 5812 5812 5814 5816 5817 5820 5821 5821 5822 5824 5826 5828 5827 5830
5773 5774 5777 5779 5778 5773 5776 5776 5778 5779 5779 5780 5781 5781 5782 5783 5784 5783 5782 5781 5785 5783 5783 5785 5787 5788 5789 5791 5794 5796 5797 5798 5797 5798 5800 5802 5804 5803 5803 5805 5806 5809 5810 5813 5815 5816 5816 5818 5817
5767 5768 5770 5770 5769 5765 5766 5769 5770 5771 5773 5773 5773 5773 5774 5774 5774 5773 5772 5771 5770 5773 5775 5777 5778 5779 5779 5781 5783 5784 5785 5786 5785 5786 5787 5791 5793 5793 5793 5794 5794 5796 5797 5799 5802 5803 5805 5808 5810
5760 5761 5762 5761 5761 5758 5762 5761 5763 5763 5765 5765 5764 5767 5766 5765 5766 5764 5762 5762 5762 5763 5766 5765 5766 5767 5768 5770 5770 5771 5772 5772 5773 5775 5776 5778 5779 5780 5780 5781 5782 5783 5787 5788 5791 5793 5793 5794 5796
5752 5754 5752 5752 5754 5753 5755 5751 5755 5755 5757 5756 5756 5759 5757 5757 5755 5752 5751 5753 5754 5753 5755 5756 5756 5755 5756 5757 5758 5759 5759 5760 5762 5762 5763 5765 5766 5767 5768 5770 5771 5770 5773 5772 5777 5780 5781 5781 5782
5744 5744 5743 5745 5746 5744 5746 5743 5746 5748 5747 5746 5746 5748 5747 5744 5738 5743 5742 5742 5742 5741 5740 5742 5743 5744 5745 5744 5744 5745 5745 5746 5748 5749 5750 5750 5752 5756 5756 5756 5757 5758 5758 5759 5762 5765 5767 5770 5772
5737 5735 5736 5736 5736 5734 5738 5739 5741 5742 5742 5740 5738 5736 5734 5728 5732 5732 5729 5730 5730 5730 5729 5728 5730 5733 5731 5730 5731 5731 5732 5733 5733 5734 5736 5737 5738 5740 5743 5741 5741 5739 5742 5746 5750 5751 5754 5758 5759
5726 5728 5728 5729 5729 5726 5735 5732 5733 5732 5728 5728 5730 5729 5719 5718 5723 5717 5719 5718 5717 5716 5715 5716 5715 5717 5717 5716 5716 5716 5717 5717 5718 5720 5722 5724 5726 5728 5730 5733 5728 5731 5726 5728 5733 5738 5740 5742 5746
5718 5721 5720 5716 5718 5720 5721 5717 5720 5723 5715 5714 5715 5718 5712 5708 5708 5709 5705 5703 5704 5701 5700 5700 5700 5700 5701 5701 5700 5700 5701 5702 5703 5705 5707 5709 5713 5719 5712 5718 5708 5715 5710 5696 5715 5720 5728 5731 5734
5712 5709 5713 5701 5702 5702 5707 5708 5709 5711 5709 5699 5694 5696 5702 5697 5697 5695 5691 5690 5688 5687 5685 5684 5682 5683 5682 5683 5683 5683 5684 5686 5687 5690 5691 5695 5698 5703 5707 5700 5699 5687 5695 5698 5700 5708 5715 5718 5721
5699 5701 5699 5698 5693 5692 5696 5699 5702 5694 5694 5691 5684 5684 5681 5684 5685 5684 5679 5676 5673 5672 5671 5668 5667 5667 5665 5664 5665 5666 5667 5669 5670 5673 5675 5678 5681 5685 5690 5695 5690 5671 5686 5688 5690 5692 5701 5704 5707
5689 5685 5687 5687 5686 5682 5683 5686 5690 5683 5680 5682 5678 5673 5668 5663 5664 5665 5665 5662 5659 5657 5655 5653 5652 5653 5652 5647 5649 5648 5649 5651 5652 5654 5657 5660 5663 5668 5670 5672 5679 5653 5665 5679 5686 5682 5684 5690 5697
5675 5676 5675 5673 5676 5674 5672 5670 5677 5668 5670 5667 5665 5662 5657 5653 5652 5649 5649 5647 5644 5642 5639 5637 5636 5636 5634 5634 5632 5632 5631 5632 5634 5636 5638 5642 5644 5648 5653 5655 5656 5664 5662 5667 5671 5677 5678 5680 5686